[[{"header":{"parameterUnit":"m.s-1","parameterCategory":1,"la1":30.2991,"la2":30.254,"lo1":-89.0895,"lo2":-89.0444,"dy":0.0017,"dx":0.0017,"nx":28,"ny":28,"refTime":"2023-07-25T09:00:00:Z","depth":0,"parameterNumber":2,"parameterNumberName":"U-component_of_WINDS"},"data":[0,0,0,0,0,0,0,0,0,0,0,0,0,0,0,0,0,0,0,0,0,0,0,0,0,0,0,0,0,0,0,0,0,0,0,0,0,0,0,0,0,0,0,0,0,0,0,0,0,0,0,0,0,0,0,0,0,0,1.7442,1.7442,0,1.741,1.7409,1.7409,1.7321,1.7319,1.7318,1.7316,1.7284,1.7285,1.7286,0,0,0,0,0,0,0,0,0,0,0,0,0,1.743,1.7431,1.7442,1.7442,1.7441,1.741,1.7409,1.7409,1.7322,1.7319,1.7317,1.7315,1.7283,1.7285,1.7286,0,0,0,0,0,0,0,0,0,0,0,0,0,1.7421,1.7431,1.7442,1.7394,1.7389,1.741,1.7409,1.7409,1.7322,1.7319,1.7317,1.7314,1.7283,1.7284,1.7286,1.7351,0,0,1.729,1.729,0,0,0,0,0,0,0,0,1.7421,1.7421,1.7401,1.7397,1.7392,1.7367,1.7393,1.7389,1.7323,1.7348,1.7316,1.7312,1.7314,1.7312,1.7313,1.7349,1.7348,1.729,1.7291,1.7291,1.7292,0,0,0,0,0,0,0,1.7422,1.7422,1.7429,1.7401,1.7396,1.7375,1.737,1.7392,1.7347,1.7345,1.7339,1.7336,1.7311,1.7311,1.7311,1.7347,1.729,1.7291,1.7292,1.7293,1.7438,1.7441,0,0,0,0,0,0,1.7429,1.7423,1.743,1.7428,1.74,1.7377,1.7372,1.7378,1.7346,1.7339,1.7339,1.7332,1.7311,1.731,1.731,1.7385,1.7291,1.7293,1.7293,1.7435,1.7438,1.7442,0,0,0,0,0,0,1.7429,1.7431,1.7432,1.7424,1.7422,1.738,1.7387,1.7379,1.7379,1.7341,1.7333,1.7348,1.7308,1.7308,1.7341,1.7382,1.7293,1.7295,1.7431,1.7436,1.744,1.7535,0,0,0,0,0,0,1.7429,1.7431,1.7455,1.7425,1.7423,1.7464,1.739,1.738,1.7382,1.7373,1.7348,1.7341,1.7306,1.734,1.7343,1.7382,1.7296,1.7427,1.7433,1.7438,1.7528,1.7542,1.7554,0,0,0,0,0,1.7429,1.7483,1.7457,1.7458,1.7452,1.7466,1.7465,1.7424,1.7385,1.7409,1.7385,1.7342,1.7378,1.7344,1.7347,1.7387,1.7424,1.7431,1.7438,1.7522,1.7539,1.7554,0,0,0,0,0,0,1.7518,1.7478,1.7448,1.7494,1.7484,1.7451,1.748,1.7443,1.7444,1.7436,1.7385,1.738,1.7421,1.7407,1.7371,1.745,1.7394,1.7402,1.7457,1.7473,1.7486,1.7488,1.7297,0,0,0,0,0,1.7543,1.7558,1.7522,1.7565,1.7562,1.7522,1.7527,1.7496,1.7484,1.7479,1.7458,1.7448,1.7457,1.7464,1.747,1.7526,1.7519,1.7555,1.7568,1.7579,1.7586,1.7616,1.7632,1.7464,1.7464,1.7464,0,0,1.7595,1.7575,1.7587,1.7583,1.7572,1.7589,1.7519,1.754,1.7552,1.7482,1.7513,1.7497,1.7483,1.7529,1.7547,1.7518,1.7632,1.7588,1.7597,1.7598,1.7625,1.7641,1.7655,1.7469,1.7468,1.7467,0,0,1.7697,1.7683,1.7718,1.7709,1.7693,1.7667,1.7676,1.7649,1.7636,1.7666,1.7614,1.7629,1.7645,1.7638,1.7636,1.7739,1.7699,1.7742,1.7811,1.784,1.7853,1.7865,1.7902,1.7916,1.775,1.775,1.775,0,1.7763,1.7786,1.7741,1.7766,1.7766,1.7704,1.774,1.7733,1.7721,1.7723,1.7691,1.7711,1.7698,1.7741,1.7766,1.7767,1.7776,1.7744,1.7855,1.7866,1.7876,1.7911,1.7925,1.7755,1.7755,1.7754,1.7753,0,1.7869,1.7886,1.7916,1.7906,1.791,1.794,1.79,1.791,1.788,1.7857,1.7889,1.7871,1.7873,1.7881,1.7851,1.7921,1.7903,1.7864,1.7807,1.7898,1.793,1.7943,1.7763,1.7761,1.7759,1.7758,0,0,1.8025,1.7991,1.8003,1.7998,1.7977,1.799,1.8018,1.802,1.803,1.8024,1.8046,1.8063,1.8027,1.8025,1.7994,1.802,1.8104,1.7978,1.7977,1.8002,1.8181,1.821,1.8226,1.8078,1.808,1.8082,1.8182,0,1.8122,1.8167,1.8129,1.8182,1.8198,1.8141,1.8165,1.8156,1.8136,1.8147,1.8125,1.8138,1.8089,1.8088,1.8111,1.8089,1.8139,1.8081,1.8099,1.81,1.8104,1.8243,1.8274,1.8369,1.8194,1.8196,1.8198,0,1.8241,1.8241,1.8296,1.8273,1.8278,1.8301,1.8301,1.8312,1.8301,1.8284,1.8284,1.8246,1.8273,1.8218,1.8255,1.8217,1.8222,1.8213,1.8216,1.8215,1.8154,1.8247,1.8398,1.8413,1.8217,1.8215,1.8214,0,1.835,1.8364,1.8398,1.8396,1.837,1.8388,1.8378,1.8364,1.8368,1.8369,1.8371,1.8375,1.8377,1.8381,1.8346,1.8309,1.8388,1.8329,1.8376,1.8377,1.8394,1.8394,1.8549,1.8398,1.8398,1.8398,1.8398,0,1.8462,1.8498,1.8447,1.8469,1.8508,1.8464,1.8504,1.8489,1.8477,1.8495,1.8446,1.8464,1.8417,1.8431,1.8404,1.8439,1.844,1.8428,1.8421,1.8433,1.8434,1.8435,1.8428,1.8402,1.8401,1.84,1.8399,0,1.859,1.8557,1.8592,1.8565,1.856,1.859,1.8567,1.8586,1.8564,1.8588,1.8591,1.8556,1.857,1.8535,1.8544,1.8526,1.8577,1.8559,1.8581,1.8575,1.8624,1.862,1.8785,1.8804,1.8642,1.8643,1.8644,0,1.8664,1.869,1.8667,1.8676,1.8669,1.8683,1.8688,1.8646,1.8653,1.8644,1.8665,1.8674,1.868,1.8705,1.868,1.8687,1.8669,1.8726,1.8669,1.8681,1.867,1.8669,1.8672,1.8738,1.874,1.8741,1.8743,0,1.8798,1.8781,1.879,1.8793,1.88,1.8801,1.8798,1.8808,1.8764,1.8775,1.8788,1.8793,1.8802,1.8813,1.8814,1.8805,1.8767,1.8761,1.8772,1.8784,1.8796,1.8791,1.8613,1.8757,1.8756,1.8755,1.8754,1.8753,1.8901,1.8923,1.891,1.8922,1.8916,1.8915,1.8932,1.8912,1.8923,1.8927,1.8903,1.8922,1.8912,1.891,1.8905,1.892,1.8894,1.891,1.8914,1.8918,1.8926,1.8795,1.892,1.8919,1.8919,1.8919,1.8918,0,1.9033,1.9023,1.9034,1.9032,1.9042,1.9006,1.9002,1.9012,1.903,1.9024,1.903,1.9047,1.9058,1.9035,1.9042,1.9059,1.9042,1.9062,1.9061,1.9059,1.8949,1.8939,1.9076,1.9076,1.9076,1.9076,1.9076,1.9076,1.9103,1.9138,1.912,1.9152,1.9141,1.916,1.9161,1.916,1.9155,1.9176,1.9185,1.917,1.9158,1.9164,1.9173,1.9166,1.9171,1.9197,1.9185,1.9082,1.9067,1.9052,1.9042,1.9199,1.9199,1.9293,1.9294,1.9295]},{"header":{"parameterUnit":"m.s-1","parameterCategory":1,"la1":30.2991,"la2":30.254,"lo1":-89.0895,"lo2":-89.0444,"dy":0.0017,"dx":0.0017,"nx":28,"ny":28,"refTime":"2023-07-25T09:00:00:Z","depth":0,"parameterNumber":3,"parameterNumberName":"V-component_of_WINDS"},"data":[0,0,0,0,0,0,0,0,0,0,0,0,0,0,0,0,0,0,0,0,0,0,0,0,0,0,0,0,0,0,0,0,0,0,0,0,0,0,0,0,0,0,0,0,0,0,0,0,0,0,0,0,0,0,0,0,0,0,-2.5054,-2.5054,0,-2.5055,-2.5055,-2.5055,-2.4996,-2.4995,-2.4993,-2.4992,-2.4992,-2.4993,-2.4995,0,0,0,0,0,0,0,0,0,0,0,0,0,-2.5,-2.5001,-2.5054,-2.5054,-2.5054,-2.5055,-2.5055,-2.5055,-2.4996,-2.4995,-2.4993,-2.4991,-2.4991,-2.4993,-2.4995,0,0,0,0,0,0,0,0,0,0,0,0,0,-2.5015,-2.5002,-2.5054,-2.5025,-2.5022,-2.5055,-2.5055,-2.5055,-2.4997,-2.4994,-2.4992,-2.499,-2.4991,-2.4993,-2.4995,-2.5056,0,0,-2.5002,-2.5003,0,0,0,0,0,0,0,0,-2.5014,-2.5017,-2.5029,-2.5027,-2.5024,-2.5023,-2.5036,-2.5056,-2.4997,-2.5007,-2.4991,-2.4989,-2.5004,-2.5005,-2.501,-2.5056,-2.5056,-2.5002,-2.5003,-2.5004,-2.5005,0,0,0,0,0,0,0,-2.5013,-2.5016,-2.5055,-2.503,-2.5026,-2.5011,-2.5011,-2.504,-2.5018,-2.5006,-2.5001,-2.5002,-2.5002,-2.5008,-2.501,-2.5056,-2.5002,-2.5004,-2.5005,-2.5006,-2.515,-2.5153,0,0,0,0,0,0,-2.5016,-2.5016,-2.5055,-2.5055,-2.5013,-2.5014,-2.5014,-2.5026,-2.5018,-2.5015,-2.5004,-2.4999,-2.5006,-2.5007,-2.501,-2.508,-2.5004,-2.5006,-2.5007,-2.5148,-2.5151,-2.5154,0,0,0,0,0,0,-2.5015,-2.502,-2.5055,-2.5034,-2.5037,-2.5018,-2.5032,-2.5027,-2.5033,-2.5017,-2.5013,-2.5015,-2.5004,-2.5007,-2.5045,-2.5079,-2.5007,-2.5009,-2.5145,-2.5149,-2.5152,-2.5221,0,0,0,0,0,0,-2.5014,-2.502,-2.5043,-2.5035,-2.5039,-2.509,-2.5034,-2.5029,-2.5037,-2.5031,-2.5026,-2.5022,-2.5002,-2.5042,-2.5047,-2.5081,-2.5011,-2.5142,-2.5147,-2.5151,-2.5215,-2.5226,-2.5236,0,0,0,0,0,-2.5012,-2.5062,-2.5045,-2.505,-2.5067,-2.5092,-2.5094,-2.507,-2.504,-2.5063,-2.5053,-2.5022,-2.5075,-2.5046,-2.5051,-2.5086,-2.514,-2.5145,-2.5151,-2.5211,-2.5224,-2.5236,0,0,0,0,0,0,-2.5074,-2.5061,-2.5041,-2.509,-2.5093,-2.5082,-2.511,-2.5085,-2.5096,-2.509,-2.506,-2.5059,-2.5102,-2.5098,-2.5066,-2.5145,-2.5102,-2.5109,-2.5145,-2.5158,-2.5168,-2.5168,-2.5013,0,0,0,0,0,-2.5094,-2.5116,-2.5102,-2.5147,-2.5149,-2.513,-2.514,-2.5121,-2.5123,-2.5123,-2.5116,-2.5118,-2.5135,-2.5146,-2.5161,-2.5215,-2.5212,-2.5242,-2.5252,-2.526,-2.5266,-2.5294,-2.5307,-2.5172,-2.5172,-2.5172,0,0,-2.5134,-2.5129,-2.5145,-2.5159,-2.5159,-2.5182,-2.5131,-2.5157,-2.5174,-2.5127,-2.5162,-2.5157,-2.5158,-2.5204,-2.5224,-2.5202,-2.5303,-2.5268,-2.5274,-2.5276,-2.5301,-2.5314,-2.5325,-2.5176,-2.5176,-2.5175,0,0,-2.5219,-2.5218,-2.5255,-2.5256,-2.5257,-2.5243,-2.5252,-2.5246,-2.524,-2.5276,-2.5241,-2.526,-2.529,-2.5291,-2.5296,-2.5383,-2.5355,-2.5388,-2.5441,-2.5469,-2.5479,-2.5489,-2.5519,-2.553,-2.5395,-2.5395,-2.5395,0,-2.5269,-2.5302,-2.5277,-2.5305,-2.5313,-2.5272,-2.5309,-2.5311,-2.5317,-2.5322,-2.5298,-2.5334,-2.5332,-2.5378,-2.5399,-2.5404,-2.5413,-2.5388,-2.548,-2.5489,-2.5497,-2.5526,-2.5537,-2.5399,-2.5398,-2.5398,-2.5397,0,-2.5363,-2.5387,-2.5416,-2.5423,-2.5434,-2.5466,-2.5445,-2.5459,-2.544,-2.5429,-2.5466,-2.5462,-2.5474,-2.5484,-2.5466,-2.5527,-2.5514,-2.5485,-2.5441,-2.5515,-2.5541,-2.5551,-2.5404,-2.5403,-2.5402,-2.5401,0,0,-2.5486,-2.5479,-2.549,-2.5492,-2.5491,-2.5508,-2.5539,-2.5552,-2.5564,-2.557,-2.5594,-2.562,-2.5594,-2.56,-2.5581,-2.5606,-2.5673,-2.5574,-2.5573,-2.5592,-2.5741,-2.5761,-2.5774,-2.5656,-2.5658,-2.5659,-2.574,0,-2.5568,-2.562,-2.5598,-2.5653,-2.5674,-2.5636,-2.5663,-2.5665,-2.5656,-2.5672,-2.5662,-2.5681,-2.5645,-2.5648,-2.5671,-2.566,-2.5703,-2.5654,-2.5678,-2.5679,-2.5678,-2.5788,-2.581,-2.5887,-2.575,-2.5752,-2.5753,0,-2.567,-2.568,-2.5736,-2.5731,-2.5739,-2.5763,-2.5773,-2.579,-2.5791,-2.5782,-2.5789,-2.5765,-2.5795,-2.5752,-2.5792,-2.576,-2.5768,-2.5764,-2.5767,-2.5767,-2.572,-2.5791,-2.591,-2.5922,-2.5769,-2.5768,-2.5767,0,-2.5753,-2.5781,-2.5818,-2.5821,-2.5816,-2.5834,-2.5832,-2.5831,-2.584,-2.5849,-2.5855,-2.5867,-2.5874,-2.5884,-2.5863,-2.5834,-2.5906,-2.5862,-2.5899,-2.59,-2.5915,-2.5914,-2.6037,-2.5923,-2.5922,-2.5922,-2.5922,0,-2.5846,-2.5882,-2.5855,-2.5878,-2.5917,-2.5892,-2.5931,-2.5925,-2.5924,-2.5945,-2.5914,-2.5934,-2.5906,-2.5924,-2.5908,-2.5943,-2.5947,-2.5941,-2.5936,-2.5943,-2.5944,-2.5947,-2.5941,-2.5925,-2.5924,-2.5924,-2.5923,0,-2.5945,-2.5929,-2.5966,-2.5959,-2.5957,-2.5986,-2.5979,-2.6,-2.5989,-2.6016,-2.602,-2.6003,-2.6022,-2.6003,-2.6021,-2.6011,-2.6058,-2.6046,-2.6057,-2.6054,-2.6092,-2.6088,-2.6221,-2.6236,-2.6113,-2.6114,-2.6115,0,-2.6005,-2.6031,-2.6027,-2.6038,-2.6039,-2.6058,-2.6068,-2.6044,-2.6055,-2.6059,-2.6079,-2.6095,-2.6107,-2.6139,-2.6128,-2.6141,-2.6128,-2.6174,-2.613,-2.6136,-2.6128,-2.6126,-2.6129,-2.6183,-2.6184,-2.6185,-2.6186,0,-2.6112,-2.6103,-2.6118,-2.613,-2.6143,-2.6151,-2.6157,-2.6168,-2.6144,-2.6158,-2.6177,-2.6186,-2.6205,-2.6221,-2.6231,-2.6229,-2.6204,-2.62,-2.621,-2.6216,-2.6222,-2.6219,-2.6081,-2.6197,-2.6196,-2.6195,-2.6195,-2.6194,-2.6193,-2.6215,-2.6215,-2.6232,-2.6234,-2.6241,-2.626,-2.6252,-2.6267,-2.628,-2.6266,-2.6289,-2.6289,-2.63,-2.6302,-2.6319,-2.63,-2.6314,-2.6317,-2.632,-2.6326,-2.622,-2.6321,-2.6321,-2.632,-2.632,-2.632,0,-2.6298,-2.6296,-2.6313,-2.6322,-2.6336,-2.6312,-2.6317,-2.6331,-2.6352,-2.6354,-2.6367,-2.6389,-2.6405,-2.6395,-2.6409,-2.6425,-2.6413,-2.6429,-2.6427,-2.6427,-2.6342,-2.6333,-2.6438,-2.6438,-2.6438,-2.6438,-2.6438,-2.6438,-2.6354,-2.639,-2.6381,-2.6417,-2.6415,-2.6438,-2.6443,-2.6448,-2.645,-2.6477,-2.649,-2.6484,-2.6482,-2.6495,-2.6508,-2.6505,-2.6511,-2.6531,-2.6524,-2.6445,-2.6433,-2.6422,-2.6412,-2.6533,-2.6533,-2.6606,-2.6607,-2.6607]}]]